• In Deutschland
  • Länderverzeichnis
  • Für 7 Tage
  • Wassertemperatur
  • Satellitenkarten
  • Wetterkarte
  • Widgets
  • user-avatar
    Anmelden

    Stündliche Wetter Herāt

    Heute, 23 Juni, Freitag

    Zeit Temperatur Niederschläge Wind Luftdruck Luftfeuchtigkeit
    00:00 +32°C° 0 mm 5 m/S 674 mmHg 22%
    01:00 +32°C° 0 mm 5 m/S 674 mmHg 24%
    02:00 +30°C° 0 mm 5 m/S 674 mmHg 26%
    03:00 +29°C° 0 mm 5 m/S 674 mmHg 27%
    04:00 +28°C° 0 mm 5 m/S 674 mmHg 27%
    05:00 +29°C° 0 mm 6 m/S 675 mmHg 26%
    06:00 +30°C° 0 mm 6 m/S 675 mmHg 26%
    07:00 +32°C° 0 mm 7 m/S 676 mmHg 25%
    08:00 +34°C° 0 mm 7 m/S 676 mmHg 22%
    09:00 +36°C° 0 mm 7 m/S 677 mmHg 20%
    10:00 +39°C° 0 mm 8 m/S 677 mmHg 17%
    11:00 +40°C° 0 mm 8 m/S 677 mmHg 16%
    12:00 +41°C° 0 mm 8 m/S 677 mmHg 15%
    13:00 +43°C° 0 mm 8 m/S 677 mmHg 13%
    14:00 +43°C° 0 mm 8 m/S 676 mmHg 14%
    15:00 +41°C° 0 mm 8 m/S 676 mmHg 14%
    16:00 +41°C° 0 mm 8 m/S 675 mmHg 15%
    17:00 +40°C° 0 mm 9 m/S 675 mmHg 17%
    18:00 +38°C° 0 mm 9 m/S 675 mmHg 19%
    19:00 +36°C° 0 mm 10 m/S 675 mmHg 22%
    20:00 +34°C° 0 mm 10 m/S 676 mmHg 24%
    21:00 +33°C° 0 mm 10 m/S 676 mmHg 27%
    22:00 +32°C° 0 mm 10 m/S 676 mmHg 29%
    23:00 +31°C° 0 mm 9 m/S 676 mmHg 31%

    Morgen, 24 Juni, Samstag

    Zeit Temperatur Niederschläge Wind Luftdruck Luftfeuchtigkeit
    00:00 +29°C° 0 mm 9 m/S 676 mmHg 33%
    01:00 +29°C° 0 mm 9 m/S 676 mmHg 35%
    02:00 +28°C° 0 mm 9 m/S 676 mmHg 36%
    03:00 +27°C° 0 mm 8 m/S 676 mmHg 37%
    04:00 +27°C° 0 mm 8 m/S 676 mmHg 39%
    05:00 +28°C° 0 mm 8 m/S 676 mmHg 37%
    06:00 +28°C° 0 mm 8 m/S 677 mmHg 35%
    07:00 +29°C° 0 mm 9 m/S 677 mmHg 34%
    08:00 +31°C° 0 mm 9 m/S 677 mmHg 31%
    09:00 +33°C° 0 mm 10 m/S 677 mmHg 27%
    10:00 +36°C° 0 mm 10 m/S 678 mmHg 24%
    11:00 +36°C° 0 mm 11 m/S 677 mmHg 23%
    12:00 +37°C° 0 mm 11 m/S 677 mmHg 21%
    13:00 +38°C° 0 mm 11 m/S 677 mmHg 20%
    14:00 +38°C° 0 mm 12 m/S 677 mmHg 20%
    15:00 +38°C° 0 mm 12 m/S 676 mmHg 19%
    16:00 +38°C° 0 mm 12 m/S 676 mmHg 19%
    17:00 +36°C° 0 mm 11 m/S 676 mmHg 20%
    18:00 +34°C° 0 mm 11 m/S 676 mmHg 21%
    19:00 +33°C° 0 mm 11 m/S 676 mmHg 22%
    20:00 +32°C° 0 mm 10 m/S 676 mmHg 22%
    21:00 +31°C° 0 mm 10 m/S 676 mmHg 23%
    22:00 +29°C° 0 mm 10 m/S 677 mmHg 24%
    23:00 +29°C° 0 mm 9 m/S 676 mmHg 24%

    übermorgen, 25 Juni, Sonntag

    Zeit Temperatur Niederschläge Wind Luftdruck Luftfeuchtigkeit
    00:00 +28°C° 0 mm 9 m/S 676 mmHg 25%
    01:00 +27°C° 0 mm 8 m/S 676 mmHg 26%
    02:00 +27°C° 0 mm 7 m/S 676 mmHg 27%
    03:00 +26°C° 0 mm 7 m/S 676 mmHg 28%
    04:00 +26°C° 0 mm 7 m/S 676 mmHg 29%
    05:00 +27°C° 0 mm 7 m/S 676 mmHg 27%
    06:00 +28°C° 0 mm 8 m/S 676 mmHg 25%
    07:00 +29°C° 0 mm 9 m/S 677 mmHg 23%
    08:00 +31°C° 0 mm 10 m/S 677 mmHg 21%
    09:00 +33°C° 0 mm 11 m/S 677 mmHg 19%
    10:00 +34°C° 0 mm 11 m/S 677 mmHg 17%
    11:00 +36°C° 0 mm 11 m/S 677 mmHg 16%
    12:00 +37°C° 0 mm 11 m/S 677 mmHg 15%
    13:00 +38°C° 0 mm 11 m/S 677 mmHg 14%
    14:00 +37°C° 0 mm 12 m/S 676 mmHg 14%
    15:00 +37°C° 0 mm 12 m/S 676 mmHg 15%
    16:00 +37°C° 0 mm 12 m/S 676 mmHg 15%
    17:00 +36°C° 0 mm 11 m/S 676 mmHg 17%
    18:00 +33°C° 0 mm 11 m/S 676 mmHg 19%
    19:00 +32°C° 0 mm 10 m/S 676 mmHg 20%
    20:00 +31°C° 0 mm 10 m/S 676 mmHg 21%
    21:00 +31°C° 0 mm 9 m/S 676 mmHg 23%
    22:00 +29°C° 0 mm 9 m/S 677 mmHg 24%
    23:00 +28°C° 0 mm 8 m/S 676 mmHg 24%

    26 Juni, Montag

    Zeit Temperatur Niederschläge Wind Luftdruck Luftfeuchtigkeit
    00:00 +28°C° 0 mm 8 m/S 676 mmHg 25%
    01:00 +27°C° 0 mm 7 m/S 676 mmHg 26%
    02:00 +26°C° 0 mm 7 m/S 676 mmHg 26%
    03:00 +26°C° 0 mm 7 m/S 676 mmHg 27%
    04:00 +24°C° 0 mm 7 m/S 676 mmHg 28%
    05:00 +27°C° 0 mm 8 m/S 677 mmHg 26%
    06:00 +28°C° 0 mm 9 m/S 677 mmHg 24%
    07:00 +29°C° 0 mm 10 m/S 678 mmHg 22%
    08:00 +31°C° 0 mm 11 m/S 678 mmHg 21%
    09:00 +32°C° 0 mm 12 m/S 679 mmHg 19%
    10:00 +34°C° 0 mm 12 m/S 679 mmHg 17%
    11:00 +36°C° 0 mm 13 m/S 679 mmHg 16%
    12:00 +36°C° 0 mm 13 m/S 679 mmHg 16%
    13:00 +37°C° 0 mm 13 m/S 679 mmHg 15%
    14:00 +37°C° 0 mm 13 m/S 678 mmHg 15%
    15:00 +37°C° 0 mm 14 m/S 678 mmHg 14%
    16:00 +36°C° 0 mm 14 m/S 678 mmHg 14%
    17:00 +34°C° 0 mm 14 m/S 678 mmHg 15%
    18:00 +33°C° 0 mm 13 m/S 678 mmHg 15%
    19:00 +32°C° 0 mm 13 m/S 678 mmHg 16%
    20:00 +31°C° 0 mm 12 m/S 678 mmHg 15%
    21:00 +29°C° 0 mm 11 m/S 678 mmHg 15%
    22:00 +29°C° 0 mm 11 m/S 679 mmHg 15%
    23:00 +28°C° 0 mm 10 m/S 678 mmHg 16%

    27 Juni, Dienstag

    Zeit Temperatur Niederschläge Wind Luftdruck Luftfeuchtigkeit
    00:00 +27°C° 0 mm 10 m/S 678 mmHg 16%
    01:00 +27°C° 0 mm 9 m/S 677 mmHg 17%
    02:00 +26°C° 0 mm 9 m/S 677 mmHg 18%
    03:00 +26°C° 0 mm 9 m/S 677 mmHg 19%
    04:00 +24°C° 0 mm 9 m/S 677 mmHg 21%
    05:00 +26°C° 0 mm 10 m/S 677 mmHg 20%
    06:00 +27°C° 0 mm 11 m/S 678 mmHg 20%
    07:00 +29°C° 0 mm 12 m/S 678 mmHg 20%
    08:00 +31°C° 0 mm 12 m/S 678 mmHg 18%
    09:00 +32°C° 0 mm 13 m/S 678 mmHg 16%
    10:00 +34°C° 0 mm 14 m/S 679 mmHg 15%
    11:00 +34°C° 0 mm 14 m/S 678 mmHg 14%
    12:00 +36°C° 0 mm 14 m/S 678 mmHg 13%
    13:00 +37°C° 0 mm 14 m/S 678 mmHg 11%
    14:00 +37°C° 0 mm 14 m/S 677 mmHg 11%
    15:00 +37°C° 0 mm 14 m/S 677 mmHg 11%
    16:00 +37°C° 0 mm 14 m/S 677 mmHg 11%
    17:00 +36°C° 0 mm 13 m/S 677 mmHg 11%
    18:00 +34°C° 0 mm 13 m/S 677 mmHg 12%
    19:00 +32°C° 0 mm 12 m/S 677 mmHg 12%
    20:00 +32°C° 0 mm 11 m/S 677 mmHg 13%
    21:00 +31°C° 0 mm 11 m/S 677 mmHg 13%
    22:00 +29°C° 0 mm 11 m/S 677 mmHg 14%
    23:00 +29°C° 0 mm 10 m/S 677 mmHg 15%

    28 Juni, Mittwoch

    Zeit Temperatur Niederschläge Wind Luftdruck Luftfeuchtigkeit
    00:00 +28°C° 0 mm 10 m/S 676 mmHg 16%
    01:00 +27°C° 0 mm 9 m/S 676 mmHg 17%
    02:00 +27°C° 0 mm 9 m/S 676 mmHg 18%
    03:00 +26°C° 0 mm 8 m/S 676 mmHg 19%
    04:00 +26°C° 0 mm 8 m/S 676 mmHg 20%
    05:00 +27°C° 0 mm 9 m/S 676 mmHg 20%
    06:00 +28°C° 0 mm 11 m/S 676 mmHg 19%
    07:00 +29°C° 0 mm 12 m/S 677 mmHg 18%
    08:00 +31°C° 0 mm 12 m/S 677 mmHg 17%
    09:00 +32°C° 0 mm 13 m/S 677 mmHg 15%
    10:00 +34°C° 0 mm 13 m/S 677 mmHg 14%
    11:00 +36°C° 0 mm 13 m/S 677 mmHg 13%
    12:00 +37°C° 0 mm 13 m/S 677 mmHg 12%
    13:00 +38°C° 0 mm 13 m/S 676 mmHg 11%
    14:00 +38°C° 0 mm 13 m/S 676 mmHg 11%
    15:00 +38°C° 0 mm 13 m/S 676 mmHg 11%
    16:00 +38°C° 0 mm 13 m/S 676 mmHg 11%
    17:00 +37°C° 0 mm 12 m/S 676 mmHg 12%
    18:00 +36°C° 0 mm 12 m/S 676 mmHg 13%
    19:00 +33°C° 0 mm 11 m/S 676 mmHg 14%
    20:00 +33°C° 0 mm 10 m/S 676 mmHg 16%
    21:00 +32°C° 0 mm 10 m/S 676 mmHg 17%
    22:00 +31°C° 0 mm 9 m/S 676 mmHg 18%
    23:00 +29°C° 0 mm 8 m/S 676 mmHg 19%
    Mehr zeigen